Stations météo

réclame
Mon MeteoGroup
Düsseldorf, Allemagne (10400): Température de l'air & dewpoint: 09.11.2019 12:00:00 - 15.11.2019 12:00:00 (CET)Düsseldorf, Allemagne (10400): Température de l'air 5cm & Température de l'air -5cm: 09.11.2019 12:00:00 - 15.11.2019 12:00:00 (CET)Düsseldorf, Allemagne (10400): Température de l'air -20cm & Température de l'air -100cm: 09.11.2019 12:00:00 - 15.11.2019 12:00:00 (CET)Düsseldorf, Allemagne (10400): Vitesse du vent & gusts: 09.11.2019 12:00:00 - 15.11.2019 12:00:00 (CET)Düsseldorf, Allemagne (10400): Direction du vent: 09.11.2019 12:00:00 - 15.11.2019 12:00:00 (CET)Düsseldorf, Allemagne (10400): reduced air pressure: 09.11.2019 12:00:00 - 15.11.2019 12:00:00 (CET)Düsseldorf, Allemagne (10400): visibility: 09.11.2019 12:00:00 - 15.11.2019 12:00:00 (CET)Düsseldorf, Allemagne (10400): Ensoleillement: 09.11.2019 12:00:00 - 15.11.2019 12:00:00 (CET)Düsseldorf, Allemagne (10400): Quantités de précipitations: 09.11.2019 12:00:00 - 15.11.2019 12:00:00 (CET)
Date & Time tt [°C] td [°C] tt 5cm [°C] tt -5cm [°C] tt -20cm [°C] tt -100cm [°C] ff [km/h] ff [knt] fx [km/h] fx [knt] dd ppp [hPa] vv [km] sd [min] rr [mm]
15.11.2019 12:00:00 6,0 2,0 8,0 5,3 4,4 9,6 21 11 30 16 ENE 999,9 10 36 0,0
15.11.2019 11:00:00 4,5 1,2 4,6 3,9 4,3 9,6 16 9 28 15 E 1000,4 10 7 0,0
15.11.2019 10:00:00 3,7 0,9 3,5 3,0 4,2 9,6 21 11 34 18 NE 999,2 10 0 0,0
15.11.2019 09:00:00 2,8 1,0 2,2 2,4 4,2 9,6 18 10 33 18 ENE 999,8 10 0 0,0
15.11.2019 08:00:00 2,6 0,7 1,8 2,3 4,3 9,6 22 12 31 17 NE 998,9 9 0 0,0
15.11.2019 07:00:00 2,4 0,7 1,7 2,2 4,3 9,6 20 11 29 16 NE 999,3 11 0 0,0
15.11.2019 06:00:00 2,0 0,5 1,1 2,0 4,5 9,6 14 8 21 11 NE 999,6 12 0 0,0
15.11.2019 05:00:00 1,7 0,4 0,4 2,1 4,6 9,6 11 6 20 11 NE 1000,0 10 0 0,0
15.11.2019 04:00:00 1,9 0,7 0,3 2,3 4,8 9,6 11 6 16 9 ENE 1000,9 10 0 0,0
15.11.2019 03:00:00 2,6 1,3 1,2 2,7 4,9 9,6 15 8 18 10 ENE 1001,2 10 0 0,0
15.11.2019 02:00:00 3,0 1,2 1,0 2,9 5,1 9,6 5 3 9 5 NNE 1002,4 35 0 0,0
15.11.2019 01:00:00 3,4 1,4 1,9 3,1 5,2 9,6 6 3 11 6 NE 1002,7 40 0 0,0
15.11.2019 00:00:00 3,8 1,4 1,6 3,2 5,3 9,6 8 4 15 8 NE 1002,7 10 0 0,0
14.11.2019 23:00:00 3,6 1,2 0,6 3,3 5,5 9,7 8 4 9 5 NE 1003,1 50 0 0,0
14.11.2019 22:00:00 3,9 1,2 -0,8 3,8 5,7 9,7 6 3 23 13 NE 1003,6 50 0 0,0
14.11.2019 21:00:00 4,5 2,0 1,3 4,4 5,8 9,7 8 4 16 9 ENE 1003,9 55 0 0,0
14.11.2019 20:00:00 5,5 2,1 3,1 4,6 5,9 9,7 7 4 11 6 ENE 1003,8 60 0 0,0
14.11.2019 19:00:00 4,4 2,4 2,9 4,7 6,0 9,7 10 5 17 9 E 1003,6 60 0 0,0
14.11.2019 18:00:00 4,8 2,1 2,1 5,1 6,1 9,7 8 4 11 6 ENE 1003,4 60 0 0,0
14.11.2019 17:00:00 6,5 2,4 4,2 5,6 6,2 9,7 9 5 13 7 E 1003,1 60 0 0,0
14.11.2019 16:00:00 7,8 2,3 6,0 6,1 6,1 9,7 9 5 26 14 ESE 1002,2 10 0 0,0
14.11.2019 15:00:00 8,6 2,0 7,8 6,5 6,0 9,7 18 10 35 19 SE 1001,8 10 5 0,0
14.11.2019 14:00:00 8,4 2,2 8,2 6,4 5,8 9,7 22 12 36 20 SSE 1002,4 10 0 0,0
14.11.2019 13:00:00 8,2 2,2 8,1 6,6 5,5 9,7 22 12 41 22 SSE 1002,4 10 24 0,0
14.11.2019 12:00:00 7,7 2,9 7,8 5,3 5,3 9,7 20 11 35 19 SSE 1002,4 50 0 0,0
14.11.2019 11:00:00 7,0 2,9 6,8 5,0 5,1 9,8 21 11 36 19 SE 1001,9 10 0 0,0
14.11.2019 10:00:00 6,3 2,7 5,8 4,2 5,1 9,8 18 10 35 19 SE 1002,1 10 0 0,0
14.11.2019 09:00:00 5,9 2,6 4,8 3,8 5,1 9,8 21 11 40 22 SSE 1002,3 10 0 0,0
14.11.2019 08:00:00 5,2 2,5 4,0 3,5 5,1 9,8 20 11 29 16 SSE 1001,7 30 0 0,0
14.11.2019 07:00:00 4,9 2,6 3,4 3,3 5,3 9,8 18 10 29 16 SE 1001,3 10 0 0,0
14.11.2019 06:00:00 3,9 2,2 2,1 3,3 5,4 9,8 11 6 26 14 SSE 1000,9 10 0 0,0
14.11.2019 05:00:00 4,7 2,5 3,3 3,7 5,6 9,8 18 10 33 18 SSE 1000,7 10 0 0,0
14.11.2019 04:00:00 5,0 2,6 3,6 3,9 5,7 9,8 21 11 31 17 SE 1000,6 10 0 0,0
14.11.2019 03:00:00 5,3 2,8 4,0 4,2 5,8 9,8 21 11 31 17 SSE 1001,1 10 0 0,0
14.11.2019 02:00:00 5,4 3,0 4,1 4,4 5,9 9,8 24 13 34 18 SSE 1001,0 45 0 0,0
14.11.2019 01:00:00 5,5 3,1 4,2 4,9 6,0 9,8 19 11 29 15 SSE 1001,3 40 0 0,0
14.11.2019 00:00:00 5,8 3,3 5,3 5,0 6,1 9,8 18 10 28 15 SSE 1001,5 40 0 0,0
13.11.2019 23:00:00 5,7 3,3 5,1 5,0 6,2 9,9 16 8 24 13 SSE 1002,0 35 0 0,0
13.11.2019 22:00:00 5,7 3,7 5,2 5,3 6,2 9,9 15 8 26 14 SSE 1002,4 40 0 0,0
13.11.2019 21:00:00 6,4 3,8 5,6 5,3 6,3 9,9 15 8 26 14 SSE 1002,2 40 0 0,0
13.11.2019 20:00:00 6,5 4,2 5,0 5,8 6,4 9,9 9 5 16 9 SSE 1002,3 10 0 0,0
13.11.2019 19:00:00 6,5 4,4 5,6 6,1 6,4 9,9 4 2 21 11 WSW 1002,5 16 0 0,1
13.11.2019 18:00:00 7,2 5,1 6,7 6,2 6,4 9,9 14 8 29 16 S 1002,2 24 0 0,0
13.11.2019 17:00:00 7,1 5,2 6,5 6,5 6,3 9,9 18 10 31 17 SW 1001,9 10 0 0,0
13.11.2019 16:00:00 7,3 5,5 7,2 6,9 6,2 9,9 13 7 30 16 SW 1001,7 10 5 0,0
13.11.2019 15:00:00 7,7 5,5 7,8 6,9 5,9 10,0 21 11 34 18 SSW 1001,5 10 1 0,0
13.11.2019 14:00:00 7,7 5,3 7,7 6,5 5,7 10,0 19 11 31 17 SW 1001,5 27 0 0,0
13.11.2019 13:00:00 7,5 5,1 7,9 6,1 5,5 10,0 24 13 31 17 SW 1001,3 10 0 0,0
13.11.2019 12:00:00 7,1 4,8 7,1 5,6 5,3 10,0 22 12 29 16 SSW 1001,4 10 0 0,0
13.11.2019 11:00:00 6,2 4,1 6,2 5,0 5,1 10,0 15 8 25 13 S 1001,4 10 0 0,0
13.11.2019 10:00:00 5,7 3,4 5,7 4,6 5,0 10,0 18 10 29 16 S 1001,1 10 0 0,0
13.11.2019 09:00:00 5,3 2,7 5,0 4,2 4,9 10,0 16 9 28 15 S 1000,9 10 0 0,0
13.11.2019 08:00:00 4,8 1,9 4,6 3,9 4,9 10,0 20 11 29 16 SSE 1000,6 30 0 0,0
13.11.2019 07:00:00 4,6 1,7 4,4 3,8 4,8 10,0 18 10 29 16 SSE 1000,1 10 0 0,0
13.11.2019 06:00:00 4,8 1,8 4,4 3,7 4,8 10,1 21 12 31 17 S 999,8 40 0 0,0
13.11.2019 05:00:00 4,3 1,4 3,8 3,5 4,8 10,1 21 11 35 19 S 999,5 40 0 0,0
13.11.2019 04:00:00 4,4 1,4 4,0 3,3 4,7 10,1 21 11 39 21 S 999,6 10 0 0,0
13.11.2019 03:00:00 3,7 1,0 3,3 3,1 4,7 10,1 22 12 42 23 SSE 1000,7 40 0 0,0
13.11.2019 02:00:00 3,6 1,1 3,2 2,8 4,8 10,1 22 12 38 21 SSE 1000,6 10 0 0,0
13.11.2019 01:00:00 2,6 1,0 1,7 2,4 5,0 10,1 26 14 35 19 SSE 1000,6 10 0 0,0
13.11.2019 00:00:00 2,2 0,8 0,8 2,6 5,2 10,1 15 8 29 16 SSE 1000,4 10 0 0,0
12.11.2019 23:00:00 2,7 0,9 1,6 2,8 5,4 10,1 21 11 29 16 SSE 1000,8 45 0 0,0
12.11.2019 22:00:00 3,0 1,1 1,6 3,2 5,6 10,1 16 9 35 19 SSE 1001,1 10 0 0,0
12.11.2019 21:00:00 3,4 1,0 2,1 3,6 5,8 10,1 21 11 31 17 S 1001,2 50 0 0,0
12.11.2019 20:00:00 4,5 1,7 3,2 4,1 5,9 10,2 22 12 35 19 S 1001,5 10 0 0,0
12.11.2019 19:00:00 5,5 2,6 5,1 4,5 6,1 10,2 22 12 32 17 SSE 1001,7 10 0 0,0
12.11.2019 18:00:00 5,5 2,2 4,1 4,7 6,2 10,2 15 8 24 13 S 1001,7 10 0 0,0
12.11.2019 17:00:00 5,9 2,3 4,5 5,4 6,3 10,2 21 11 30 16 S 1001,3 10 0 0,0
12.11.2019 16:00:00 6,4 2,7 5,8 6,0 6,2 10,2 21 11 30 16 SSW 1001,2 10 8 0,0
12.11.2019 15:00:00 6,9 3,3 6,9 6,1 6,1 10,2 22 12 35 19 SSW 1000,9 70 0 0,0
12.11.2019 14:00:00 6,3 3,1 5,5 5,9 6,0 10,2 24 13 36 19 SW 1001,2 60 0 0,0
12.11.2019 13:00:00 6,2 3,4 5,4 5,8 5,9 10,2 26 14 37 20 SW 1001,3 10 0 0,2
12.11.2019 12:00:00 5,6 4,0 5,2 5,6 5,8 10,2 26 14 41 22 SSW 1001,6 9 0 0,8
12.11.2019 11:00:00 6,2 3,3 5,2 5,3 5,7 10,3 17 9 42 23 S 1001,6 25 0 0,2
12.11.2019 10:00:00 5,9 3,0 5,2 4,9 5,6 10,3 25 14 35 19 S 1002,1 20 0 0,0
12.11.2019 09:00:00 5,8 2,7 4,7 4,7 5,6 10,3 22 12 35 19 S 1002,3 10 0 0,1
12.11.2019 08:00:00 5,1 2,8 4,2 4,5 5,6 10,3 24 13 35 19 S 1002,5 15 0 0,1
12.11.2019 07:00:00 5,6 2,4 4,5 4,3 5,6 10,3 22 12 29 16 S 1002,5 10 0 0,0
12.11.2019 06:00:00 5,0 2,5 4,3 3,9 5,7 10,3 21 11 32 17 S 1002,6 40 0 0,0
12.11.2019 05:00:00 4,7 2,6 3,8 4,1 5,8 10,3 24 13 34 18 S 1003,1 40 0 0,0
12.11.2019 04:00:00 4,6 2,8 3,9 4,4 5,9 10,3 22 12 29 15 S 1003,3 10 0 0,0
12.11.2019 03:00:00 5,2 3,3 4,3 4,5 6,0 10,4 18 10 27 14 S 1003,3 10 0 0,0
12.11.2019 02:00:00 5,3 3,6 4,3 4,8 6,1 10,4 21 11 29 16 S 1003,3 30 0 0,0
12.11.2019 01:00:00 5,0 3,5 3,7 5,1 6,2 10,4 18 10 26 14 S 1003,3 10 0 0,0
12.11.2019 00:00:00 6,0 4,5 5,3 5,6 6,2 10,4 16 8 21 11 S 1003,5 25 0 0,3
11.11.2019 23:00:00 6,0 4,7 5,4 5,5 6,2 10,4 16 8 46 25 S 1003,3 22 0 0,7
11.11.2019 22:00:00 6,3 4,4 5,5 5,6 6,2 10,4 16 9 29 15 S 1003,1 30 0 0,0
11.11.2019 21:00:00 6,4 4,5 5,7 5,6 6,2 10,5 18 10 28 15 S 1002,9 22 0 0,0
11.11.2019 20:00:00 5,8 5,1 5,4 5,6 6,1 10,5 21 11 28 15 S 1002,6 20 0 0,1
11.11.2019 19:00:00 5,8 5,0 5,4 5,6 6,1 10,5 16 9 28 15 SSE 1002,4 10 0 1,1
11.11.2019 18:00:00 5,9 4,8 5,3 5,5 6,1 10,5 22 12 39 21 S 1002,2 9 0 1,3
11.11.2019 17:00:00 6,2 3,8 5,1 5,6 6,1 10,5 27 15 42 23 SSE 1001,9 12 0 0,2
11.11.2019 16:00:00 7,3 2,8 6,8 5,8 6,0 10,5 26 14 46 25 SSE 1002,0 10 0 0,0
11.11.2019 15:00:00 7,4 2,6 7,1 6,0 5,9 10,6 29 16 53 29 SSE 1002,7 10 0 0,0
11.11.2019 14:00:00 7,5 2,9 7,4 6,0 5,7 10,6 31 17 47 25 S 1004,1 10 0 0,0
11.11.2019 13:00:00 6,9 2,9 6,9 5,7 5,5 10,6 29 16 47 25 S 1005,0 10 0 0,0
11.11.2019 12:00:00 6,2 2,8 6,5 5,2 5,3 10,6 26 14 42 23 SSE 1006,4 40 0 0,0
11.11.2019 11:00:00 5,1 2,2 5,3 4,4 5,3 10,6 26 14 42 23 SSE 1007,6 30 0 0,0
11.11.2019 10:00:00 4,7 2,0 4,3 4,2 5,2 10,7 26 14 40 21 SSE 1008,5 10 0 0,0
11.11.2019 09:00:00 4,2 2,1 3,7 4,0 5,2 10,7 28 15 40 22 SSE 1009,1 10 3 0,0
11.11.2019 08:00:00 4,5 2,4 4,3 3,9 5,2 10,7 22 12 36 20 SSE 1009,5 10 0 0,0
11.11.2019 07:00:00 4,1 2,3 3,9 3,8 5,1 10,7 24 13 39 21 SSE 1010,2 10 0 0,0
11.11.2019 06:00:00 3,9 2,4 3,7 3,7 5,1 10,7 26 14 37 20 SSE 1011,2 10 0 0,0
11.11.2019 05:00:00 3,6 2,3 3,2 3,5 5,2 10,7 23 12 35 19 SSE 1012,4 10 0 0,0
11.11.2019 04:00:00 3,1 2,1 2,4 3,4 5,2 10,8 26 14 34 18 SSE 1012,9 7 0 0,0
11.11.2019 03:00:00 3,0 2,1 2,9 3,6 5,3 10,8 23 12 34 18 SSE 1013,9 7 0 0,0
11.11.2019 02:00:00 2,6 1,8 2,5 3,6 5,3 10,8 23 12 35 19 SSE 1014,7 7 0 0,0
11.11.2019 01:00:00 2,6 2,0 2,4 3,6 5,3 10,8 13 7 29 16 SSE 1015,0 6 0 0,0
11.11.2019 00:00:00 2,6 2,3 2,6 3,6 5,4 10,8 16 9 34 18 SSE 1015,1 5 0 0,0
10.11.2019 23:00:00 2,6 2,5 2,6 3,4 5,4 10,9 15 8 24 13 SSE 1015,1 3,5 0 0,0
10.11.2019 22:00:00 2,2 2,1 2,0 2,8 5,7 10,9 16 9 29 16 SSE 1015,1 3,0 0 0,0
10.11.2019 21:00:00 2,6 2,4 -1,6 3,0 6,0 10,9 9 5 15 8 SSE 1015,6 10 0 0,0
10.11.2019 20:00:00 3,3 2,7 -2,3 3,6 6,3 10,9 9 5 13 7 SSE 1015,7 10 0 0,0
10.11.2019 19:00:00 3,5 3,3 -2,0 4,3 6,6 10,9 6 4 11 6 SSE 1015,4 20 0 0,0
10.11.2019 18:00:00 4,2 2,9 -0,9 5,4 6,8 11,0 12 7 15 8 SW 1015,1 40 0 0,0
10.11.2019 17:00:00 5,6 2,9 1,4 7,0 6,9 11,0 2 1 4 2 - 1014,5 10 26 0,0
10.11.2019 16:00:00 9,0 3,2 8,9 8,7 6,6 11,0 5 3 5 3 NE 1014,0 45 60 0,0
10.11.2019 15:00:00 9,2 3,2 11,9 9,1 6,1 11,0 4 2 8 4 - 1013,5 10 60 0,0
10.11.2019 14:00:00 9,1 2,6 11,8 8,6 5,6 11,0 3 2 13 7 S 1013,5 35 60 0,0
10.11.2019 13:00:00 8,4 3,0 10,0 7,5 5,0 11,1 9 5 15 8 SSE 1013,4 10 59 0,0
10.11.2019 12:00:00 7,4 2,9 9,0 6,0 4,4 11,1 8 4 16 9 SE 1013,4 10 60 0,0
10.11.2019 11:00:00 5,9 2,0 6,6 3,9 4,2 11,1 8 4 11 6 S 1013,3 10 60 0,0
10.11.2019 10:00:00 4,0 1,5 3,4 1,7 4,2 11,1 3 2 13 7 SSE 1012,9 22 60 0,0
10.11.2019 09:00:00 1,2 0,2 0,1 1,3 4,3 11,1 5 3 11 6 ESE 1012,4 20 31 0,0
10.11.2019 08:00:00 -0,6 -0,6 -4,6 1,4 4,4 11,1 2 1 9 5 ESE 1011,8 20 0 0,0
10.11.2019 07:00:00 -0,6 -1,1 -4,5 1,4 4,5 11,1 6 4 10 6 ESE 1010,8 15 0 0,0
10.11.2019 06:00:00 -1,3 -1,5 -4,2 1,5 4,7 11,2 5 3 9 5 E 1010,2 15 0 0,0
10.11.2019 05:00:00 0,7 0,2 -3,7 1,5 4,9 11,2 5 3 8 4 ENE 1009,8 10 0 0,0
10.11.2019 04:00:00 0,8 0,5 -2,7 1,7 5,1 11,2 5 3 13 7 ESE 1009,5 10 0 0,0
10.11.2019 03:00:00 1,0 0,2 -2,1 2,1 5,3 11,2 9 5 16 8 SE 1009,3 10 0 0,0
10.11.2019 02:00:00 2,5 1,1 0,7 2,4 5,5 11,2 13 7 20 11 SE 1009,0 10 0 0,0
10.11.2019 01:00:00 2,3 1,1 -0,4 2,6 5,7 11,2 9 5 19 10 SE 1008,7 25 0 0,0
10.11.2019 00:00:00 3,0 1,6 1,2 2,9 5,9 11,3 15 8 24 13 SE 1008,4 10 0 0,0
09.11.2019 23:00:00 3,1 2,0 1,5 3,1 6,1 11,3 16 9 24 13 SSE 1008,3 10 0 0,0
09.11.2019 22:00:00 3,2 2,0 1,0 3,3 6,3 11,3 13 7 18 10 SSE 1008,2 10 0 0,0
09.11.2019 21:00:00 2,5 0,9 -1,2 3,7 6,6 11,3 9 5 15 8 SSE 1008,3 10 0 0,0
09.11.2019 20:00:00 3,6 1,6 -0,4 4,1 6,8 11,3 11 6 18 10 S 1008,3 27 0 0,0
09.11.2019 19:00:00 3,2 1,7 -1,5 4,6 7,1 11,3 9 5 13 7 S 1008,4 10 0 0,0
09.11.2019 18:00:00 3,6 1,7 -0,2 5,4 7,3 11,4 9 5 18 10 SSW 1008,3 10 0 0,0
09.11.2019 17:00:00 4,9 2,4 2,2 6,6 7,4 11,4 13 7 28 15 SW 1008,3 10 14 0,0
09.11.2019 16:00:00 7,9 3,5 8,1 7,5 7,3 11,4 21 11 31 17 SSW 1008,0 10 25 0,0
09.11.2019 15:00:00 8,0 3,7 8,4 7,7 7,1 11,4 26 14 37 20 SSW 1008,0 10 18 0,0
09.11.2019 14:00:00 7,7 4,2 7,5 7,4 6,9 11,4 18 10 38 21 SSW 1008,2 10 2 0,0
09.11.2019 13:00:00 7,5 4,6 7,4 7,1 6,7 11,4 21 11 31 17 SW 1008,6 10 0 0,0
09.11.2019 12:00:00 6,7 4,7 6,6 6,6 6,5 11,5 21 11 34 18 SSW 1008,7 10 0 0,0

tt = Température de l'air
td = dewpoint
tt 5cm = Température de l'air 5cm
tt -5cm = Température de l'air -5cm
tt -20cm = Température de l'air -20cm
tt -100cm = Température de l'air -100cm
ff = Vitesse du vent
fx = gusts
dd = Direction du vent
ppp = reduced air pressure
vv = visibility
sd = Ensoleillement
rr = Quantités de précipitations

stations d'obs. à proximité